Content
SEND FEEDBACK

Daily
Averages
Monthly
Summary
Canada

BEDFORD, QUEBEC


Home > North America > Canada > Quebec
Elevation: 174 feet     Latitude: 45 28N     Longitude: 073 45W

WEATHER
 
SELECT A DAY
Number of Records: 197,834;   Date Range: 1/1/95 - 7/8/14
 
SHARE

PRINT THIS DATA

[ ← Previous Day ]
WEATHER ALMANAC - JANUARY 7, 2013
[ Next Day → ]
[ °C ]   °F
Weather ElementAverageHighLow
Temperature12.3 °F21.2 °F (10:00 pm)6.8 °F (10:00 am)
Dewpoint3.4 °F15.8 °F (11:00 pm)-4 °F (11:00 am)
Humidity69.1 %86 % (2:00 am)39 % (1:00 pm)
Wind Speed8 mph13.8 mph (8:00 pm)
Wind Gust19.6 mph (10:00 pm)
Weather ElementAverage
Visibility15.9 mi
Wind DirectionESE (115.7 °)

Weather ElementTotal
Precipitation---
Heating Degree Days51 (Base 65)
Averaged from 35 records on January 7, 2013
WEATHER CONDITIONS BREAKOUT
WIND DIRECTION BREAKOUT
WEATHER BY HOUR - JANUARY 7, 2013
[ °C ]   °F
Local TimeTemperatureDewpointHumidityBarometerVisibilityWind DirectionWind SpeedGust SpeedPrecipitationEventsConditions
1:00 AM15.0 °F10.0 °F73 %30.12 in15.0 miNorth (10°)9.2 mphSnowLight Snow
1:00 AM15.8 °F10.4 °F79 %30.12 in15.0 miNorth (10°)10.4 mphSnowLight Snow
1:25 AM15.8 °F0.0 °F15.0 miNorth (10°)10.4 mphSnowLow Drifting Snow
2:00 AM14.0 °F10.4 °F86 %30.17 in15.0 miNorth (350°)4.6 mphSnowLight Snow
3:00 AM15.8 °F10.4 °F79 %30.21 in15.0 miNorth (350°)8.1 mphSnowLight Snow
4:00 AM14.0 °F5.0 °F67 %30.24 in15.0 miNorth (10°)12.7 mphSnowLight Snow
5:00 AM12.2 °F1.4 °F62 %30.27 in15.0 miNNE (30°)11.5 mphSnowLight Snow
6:00 AM10.4 °F-0.4 °F62 %30.31 in15.0 miNNE (20°)9.2 mphSnowLight Snow
7:00 AM10.4 °F-0.4 °F62 %30.35 in15.0 miNNE (30°)6.9 mphSnowLight Snow
7:00 AM10.0 °F-1.0 °F47 %30.35 in15.0 miNNE (20°)8.1 mphSnowLight Snow
8:00 AM8.6 °F-2.2 °F62 %30.39 in15.0 miNE (50°)9.2 mphSnowLight Snow
9:00 AM8.6 °F-2.2 °F62 %30.41 in15.0 miENE (60°)8.1 mphSnowLight Snow
10:00 AM6.8 °F-2.2 °F67 %30.44 in15.0 miENE (70°)6.9 mphSnowLight Snow
11:00 AM6.8 °F-4.0 °F61 %30.45 in15.0 miNE (40°)3.5 mphSnowLight Snow
11:43 AM6.8 °F0.0 °F15.0 miNNE (30°)4.6 mphMostly Cloudy
12:00 PM8.6 °F-4.0 °F57 %30.43 in15.0 miNE (40°)3.5 mphMostly Cloudy
1:00 PM10.4 °F-2.2 °F57 %30.40 in15.0 miNE (40°)2.3 mphMostly Cloudy
1:00 PM11.0 °F-2.0 °F39 %30.40 in15.0 miNE (40°)2.3 mphPartly Cloudy
2:00 PM10.4 °F1.4 °F67 %30.41 in15.0 miWest (280°)2.3 mphPartly Cloudy
2:33 PM12.2 °F0.0 °F15.0 miSSE (160°)4.6 mphMostly Cloudy
2:39 PM12.2 °F0.0 °F15.0 miSW (220°)3.5 mphSnowLight Snow
3:00 PM12.2 °F6.8 °F79 %30.39 in15.0 miSSW (200°)6.9 mphSnowLight Snow
4:00 PM10.4 °F5.0 °F79 %30.39 in15.0 miSE (130°)10.4 mphSnowLight Snow
4:31 PM8.6 °F0.0 °F30.0 miSSE (150°)9.2 mphOvercast
5:00 PM10.4 °F5.0 °F79 %30.39 in30.0 miSE (140°)5.8 mphMostly Cloudy
5:21 PM10.4 °F0.0 °F15.0 miSE (140°)8.1 mphMostly Cloudy
6:00 PM12.2 °F6.8 °F79 %30.35 in15.0 miSE (140°)8.1 mphOvercast
6:22 PM12.2 °F0.0 °F15.0 miSE (140°)11.5 mphSnowLight Snow
7:00 PM14.0 °F9.0 °F70 %30.32 in15.0 miSSE (150°)8.1 mphSnowLight Snow
7:00 PM14.0 °F8.6 °F79 %30.32 in15.0 miSSE (150°)8.1 mphOvercast
8:00 PM14.0 °F8.6 °F79 %30.28 in15.0 miSSE (150°)13.8 mphSnowLight Snow
9:00 PM15.8 °F10.4 °F79 %30.24 in15.0 miSouth (170°)12.7 mphSnowLight Snow
9:33 PM17.6 °F0.0 °F15.0 miSouth (180°)13.8 mphOvercast
10:00 PM21.2 °F14.0 °F74 %30.21 in15.0 miSouth (180°)13.8 mph19.6 mphSnowLow Drifting Snow
11:00 PM21.2 °F15.8 °F80 %30.18 in15.0 miSSE (160°)8.1 mphOvercast
Hourly data recorded from CYUL, located miles away from Bedford, Quebec







STORIES FROM OUR PARTNERS